OBJECT G, 59884

Orbit data source: Space-Track

You're viewing an Uncataloged Satellite

Recently launched and/or uncataloged satellites may have evolving metadata. Metadata may include but not limited to: Owner, Maufacturer, Bus, Motor, and Mission.

OBJECT G, 59884 is a satellite owned by PLA SSF (CN) in LEO that was launched on Thu, 14 Dec 2023 UTC via a CHANG ZHENG 2F launch vehicle from the Jiuquan Satellite Launch Center, China (JSC). Unknown objects in Earth's orbit typically refer to objects detected orbiting the Earth but have not yet been identified or cataloged. These objects could be anything from previously untracked satellites, spent rocket stages, debris from satellite collisions, or even natural meteoroids temporarily captured by Earth's gravity.

Loading next visibility...
Identifier
59884, 2023-195G
Orbit
LEO
Country
Flag of CNCN / PRC
Related business
Manufacturer
CAST
Mission
Defense Technology
Bus & Motor
Unknown
Mass
~500 kg wet, 500 kg dry
Launch date (UTC)
2023-12-14 (3 years ago)
Launch vehicle
CHANG ZHENG 2F
Launch site
Jiuquan Satellite Launch Center, China (JSC)
Object type
Unknown
Shape & HBR
Cyl, 1.8 m
Radar Cross Section
10.308 m², Medium (>0.1 m² and < 1m²)

Expand to show TLE details & history
Last TLE update: 11 hours ago

TLE from 11 hours ago
0 OBJECT G
1 59884U 23195G   26171.45040483  .00000746  00000-0  96964-4 0  9994
2 59884  49.9934 260.4185 0003052  73.8129 286.3149 14.91829290112798
Epoch: 2026-06-20T10:48Z
TLE epoch observation values (Epoch: 2026-06-20T10:48:34.977Z)
Latitude
0.00004°
Longitude
-170.39206°
Altitude
592.18 km
Speed
7.566 km/s
True Right ascension
17h 21m 40s
True Declination
0° 00' 00"
Sunlit
Object was in full shadow at epoch
Visualization orbit readout
Latitude
Unknown
Longitude
Unknown
Altitude
Unknown
Speed
Unknown
Apparent Right ascension
Unknown
Apparent Declination
Unknown
Sunlit
N/A
Visualization observer readout
Local Sidereal Time
08:33:45
Azimuth
Unknown
Elevation
Unknown
Doppler factor
Unknown
Orbital elements
Apogee altitude
595.121 km
Perigee altitude
590.866 km
Semi-major axis
6,971.131 km
Eccentricity
0.00031
Inclination
49.9934°
RAAN
260.4185°
Arg. of periapsis
73.8129°
True anomaly
286.28133°
Mean anomaly
286.3149°
Eccentric anomaly
286.29812°
Mean motion
3.72897 °/min
Orbital period
96.54 mins
BSTAR
0.000096964
Loading maneuver chart data...
Computing Atmospheric mass density...
Loading historical data...
Loading historical data...
Loading historical data...
Loading historical data...
Loading historical data...
Loading historical data...
Loading historical data...

Documentation

Showing up to 5 results
|